Home   Weather   Eindhoven   Past weeks

Flag for Netherlands Past Weather in Eindhoven, Netherlands — Yesterday and Last 2 Weeks

Now
77 °F

Partly sunny.


Feels Like: 79 °F
Forecast: 59 / 75 °F
Wind: 6 mph from Northwest

Location: Eindhoven Airport

Current Time: May 29, 2017 at 9:11:10 pm

Latest Report: May 29, 2017 at 8:25 pm


Visibility: N/A

Pressure: 29.86 "Hg

Humidity: 65%

Dew Point: 64 °F

Location of EindhovenLocation

Past Weather in Eindhoven — Graph

°F

Eindhoven Temperature Yesterday

Maximum temperature yesterday: 81 °F (at 5:25 pm)
Minimum temperature yesterday: 61 °F (at 5:25 am)
Average temperature yesterday: 70 °F

High & Low Weather Summary for the Past Weeks

 TemperatureHumidityPressure
High91 °F (May 27, 4:25 pm)100% (May 15, 3:25 am)30.39 "Hg (May 15, 3:25 am)
Low41 °F (May 15, 3:25 am)23% (May 27, 4:55 pm)29.71 "Hg (May 19, 2:55 am)
Average65 °F66%30.09 "Hg
* Reported May 14 7:25 pm — May 29 7:25 pm, Eindhoven. Weather by CustomWeather, © 2017

Note: Actual official high and low records may vary slightly from our data, if they occured in-between our weather recording intervals... More about our weather records

Advertising

Eindhoven Weather History for the Previous 24 Hours

Scroll right to see more
 ConditionsComfort  
Time TempWeatherWind HumidityBarometerVisibility
7:25 pm
Mon, May 29
79 °FPassing clouds.8 mph61%29.86 "HgN/A
6:55 pm81 °FPassing clouds.10 mph58%29.86 "HgN/A
6:25 pm81 °FPartly sunny.14 mph62%29.83 "HgN/A
5:55 pm84 °FThunderstorms. Overcast.10 mph55%29.83 "HgN/A
5:25 pm84 °FThunderstorms. Partly sunny.13 mph55%29.83 "HgN/A
4:55 pm86 °FBroken clouds.10 mph49%29.83 "HgN/A
4:25 pm88 °FPassing clouds.8 mph46%29.83 "HgN/A
3:55 pm90 °FMostly cloudy.9 mph43%29.83 "HgN/A
3:25 pm88 °FPartly sunny.9 mph46%29.83 "HgN/A
2:55 pm88 °FPassing clouds.12 mph46%29.83 "HgN/A
2:25 pm90 °FClear.6 mph43%29.83 "HgN/A
1:55 pm88 °FWarm.9 mph46%29.86 "HgN/A
1:25 pm86 °FClear.8 mph49%29.86 "HgN/A
12:55 pm84 °FPassing clouds.7 mph51%29.86 "HgN/A
12:25 pm82 °FPassing clouds.7 mph51%29.86 "HgN/A
11:55 am81 °FPassing clouds.6 mph54%29.86 "HgN/A
11:25 am79 °FPassing clouds.6 mph58%29.86 "HgN/A
10:55 am75 °FPassing clouds.6 mph65%29.86 "HgN/A
10:25 am73 °FPartly sunny.9 mph65%29.89 "HgN/A
9:55 am72 °FScattered clouds.8 mph69%29.89 "HgN/A
9:25 am70 °FScattered clouds.8 mph69%29.89 "HgN/A
8:55 am68 °FScattered clouds.9 mph73%29.92 "HgN/A
8:25 am66 °FHigh level clouds.7 mph73%29.92 "HgN/A
7:55 am66 °FHigh level clouds.8 mph73%29.92 "HgN/A
7:25 am64 °FPassing clouds.8 mph73%29.92 "HgN/A
6:55 am64 °FPartly sunny.7 mph73%29.92 "HgN/A
6:25 am64 °FMild.7 mph73%29.92 "HgN/A
5:55 am64 °FMild.7 mph73%29.92 "HgN/A
5:25 am64 °FOvercast.5 mph73%29.92 "HgN/A
4:55 am64 °FMild.7 mph73%29.95 "HgN/A
4:25 am66 °FPassing clouds.8 mph68%29.95 "HgN/A
3:55 am66 °FOvercast.8 mph68%29.95 "HgN/A
3:25 am66 °FOvercast.7 mph68%29.98 "HgN/A
2:25 am66 °FOvercast.7 mph68%29.98 "HgN/A
1:55 am66 °FOvercast.8 mph73%29.98 "HgN/A
1:25 am66 °FOvercast.6 mph73%29.98 "HgN/A
12:55 am70 °FMild.6 mph64%29.98 "HgN/A
12:25 am70 °FPassing clouds.7 mph64%29.98 "HgN/A
11:55 pm
Sun, May 28
72 °FOvercast.7 mph65%30.01 "HgN/A
11:25 pm70 °FOvercast.6 mph69%30.01 "HgN/A
10:55 pm72 °FOvercast.5 mph69%30.01 "HgN/A
10:25 pm72 °FOvercast.7 mph69%30.01 "HgN/A
9:25 pm73 °FOvercast.5 mph61%30.01 "HgN/A
Weather by CustomWeather, © 2017

See weather overviewHow to use our weather pages